TimeCDT,TemperatureF,Dew PointF,Humidity,Sea Level PressureIn,VisibilityMPH,Wind Direction,Wind SpeedMPH,Gust SpeedMPH,PrecipitationIn,Events,Conditions,WindDirDegrees,DateUTC
12:15 AM,76.3,74.1,93,29.96,10.0,North,3.5,-,N/A,,Scattered Clouds,10,2013-06-15 05:15:00
12:35 AM,76.3,71.2,84,29.95,10.0,NNE,6.9,-,N/A,,Clear,30,2013-06-15 05:35:00
12:55 AM,75.4,68.9,80,29.93,10.0,NNE,6.9,-,N/A,,Clear,30,2013-06-15 05:55:00
1:15 AM,75.2,68.4,79,29.96,10.0,Calm,Calm,-,N/A,,Clear,0,2013-06-15 06:15:00
1:35 AM,73.2,69.3,87,29.97,10.0,Calm,Calm,-,N/A,,Clear,0,2013-06-15 06:35:00
1:55 AM,72.7,70.2,92,29.96,10.0,Calm,Calm,-,N/A,,Scattered Clouds,0,2013-06-15 06:55:00
2:15 AM,72.7,69.1,88,29.95,10.0,ENE,3.5,-,N/A,,Clear,60,2013-06-15 07:15:00
2:35 AM,72.9,68.0,85,29.95,10.0,Calm,Calm,-,N/A,,Clear,0,2013-06-15 07:35:00
2:55 AM,71.6,68.4,89,29.96,10.0,Calm,Calm,-,N/A,,Clear,0,2013-06-15 07:55:00
3:15 AM,70.7,68.9,94,29.96,10.0,Calm,Calm,-,N/A,,Clear,0,2013-06-15 08:15:00
3:35 AM,71.8,68.2,88,29.96,10.0,Calm,Calm,-,N/A,,Scattered Clouds,0,2013-06-15 08:35:00
3:55 AM,71.1,68.5,92,29.95,10.0,Calm,Calm,-,N/A,,Scattered Clouds,0,2013-06-15 08:55:00
4:15 AM,70.7,68.4,92,29.94,10.0,North,6.9,-,N/A,,Clear,350,2013-06-15 09:15:00
4:35 AM,71.2,68.0,89,29.95,10.0,Calm,Calm,-,N/A,,Clear,0,2013-06-15 09:35:00
4:55 AM,70.9,68.0,91,29.95,10.0,Calm,Calm,-,N/A,,Clear,0,2013-06-15 09:55:00
5:15 AM,70.2,67.5,91,29.96,10.0,Calm,Calm,-,N/A,,Clear,0,2013-06-15 10:15:00
5:35 AM,69.1,67.3,94,29.96,10.0,Calm,Calm,-,N/A,,Clear,0,2013-06-15 10:35:00
5:55 AM,68.7,67.1,95,29.96,7.0,Calm,Calm,-,N/A,,Clear,0,2013-06-15 10:55:00
6:15 AM,69.1,67.1,93,29.97,7.0,Calm,Calm,-,N/A,,Clear,0,2013-06-15 11:15:00
6:35 AM,68.9,67.1,94,29.97,7.0,Calm,Calm,-,N/A,,Clear,0,2013-06-15 11:35:00
6:55 AM,69.4,67.1,92,29.98,10.0,Calm,Calm,-,N/A,,Clear,0,2013-06-15 11:55:00
7:15 AM,70.3,67.8,92,29.98,10.0,Calm,Calm,-,N/A,,Clear,0,2013-06-15 12:15:00
7:35 AM,72.7,68.5,87,29.99,10.0,Calm,Calm,-,N/A,,Clear,0,2013-06-15 12:35:00
7:55 AM,74.3,68.9,83,30.00,10.0,Calm,Calm,-,N/A,,Clear,0,2013-06-15 12:55:00
8:15 AM,76.1,68.7,78,30.00,10.0,Calm,Calm,-,N/A,,Clear,0,2013-06-15 13:15:00
8:35 AM,77.4,68.7,75,30.00,10.0,East,4.6,-,N/A,,Clear,80,2013-06-15 13:35:00
8:55 AM,78.8,68.7,71,30.01,10.0,East,5.8,-,N/A,,Clear,80,2013-06-15 13:55:00
9:15 AM,79.9,69.3,70,30.01,10.0,East,3.5,-,N/A,,Clear,90,2013-06-15 14:15:00
9:35 AM,80.6,69.3,68,30.01,10.0,ENE,3.5,-,N/A,,Clear,70,2013-06-15 14:35:00
9:55 AM,81.9,70.3,68,30.00,10.0,ESE,4.6,-,N/A,,Clear,120,2013-06-15 14:55:00
10:15 AM,82.8,70.3,66,30.00,10.0,East,3.5,-,N/A,,Clear,100,2013-06-15 15:15:00
10:35 AM,83.3,70.9,66,30.01,10.0,Calm,Calm,-,N/A,,Clear,0,2013-06-15 15:35:00
10:55 AM,84.0,70.2,63,30.01,10.0,Calm,Calm,-,N/A,,Clear,0,2013-06-15 15:55:00
11:15 AM,84.7,70.9,63,30.00,10.0,Calm,Calm,-,N/A,,Clear,0,2013-06-15 16:15:00
11:35 AM,84.9,72.1,65,30.00,10.0,Calm,Calm,-,N/A,,Clear,0,2013-06-15 16:35:00
11:55 AM,85.8,73.0,65,30.00,10.0,Calm,Calm,-,N/A,,Clear,0,2013-06-15 16:55:00
12:15 PM,86.4,73.6,66,30.00,10.0,SE,4.6,-,N/A,,Clear,130,2013-06-15 17:15:00
12:35 PM,88.2,74.1,63,29.99,10.0,SE,3.5,-,N/A,,Clear,140,2013-06-15 17:35:00
12:55 PM,87.6,74.1,64,29.99,10.0,Calm,Calm,-,N/A,,Scattered Clouds,0,2013-06-15 17:55:00
1:15 PM,88.3,74.5,63,29.99,10.0,Calm,Calm,-,N/A,,Scattered Clouds,0,2013-06-15 18:15:00
1:35 PM,87.8,72.5,60,29.99,10.0,Calm,Calm,-,N/A,,Scattered Clouds,0,2013-06-15 18:35:00
1:55 PM,88.3,72.9,60,29.98,10.0,NE,4.6,-,N/A,,Scattered Clouds,50,2013-06-15 18:55:00
2:15 PM,90.1,72.3,56,29.98,10.0,Calm,Calm,-,N/A,,Scattered Clouds,0,2013-06-15 19:15:00
2:35 PM,87.8,73.4,62,29.97,10.0,NE,3.5,-,N/A,,Mostly Cloudy,40,2013-06-15 19:35:00
2:55 PM,90.0,73.2,58,29.96,10.0,ENE,3.5,-,N/A,,Mostly Cloudy,70,2013-06-15 19:55:00
3:15 PM,90.7,73.2,56,29.96,10.0,Calm,Calm,-,N/A,,Scattered Clouds,0,2013-06-15 20:15:00
3:35 PM,90.5,72.0,54,29.96,10.0,North,3.5,-,N/A,,Scattered Clouds,360,2013-06-15 20:35:00
3:55 PM,91.4,72.9,54,29.95,10.0,Calm,Calm,-,N/A,,Clear,0,2013-06-15 20:55:00
4:15 PM,89.4,72.5,57,29.95,10.0,ENE,3.5,-,N/A,,Clear,70,2013-06-15 21:15:00
4:35 PM,90.7,72.7,55,29.94,10.0,NE,4.6,-,N/A,,Scattered Clouds,40,2013-06-15 21:35:00
4:55 PM,90.3,72.1,55,29.94,10.0,NNE,3.5,-,N/A,,Clear,30,2013-06-15 21:55:00
5:15 PM,90.5,72.3,55,29.93,10.0,NNE,3.5,-,N/A,,Clear,30,2013-06-15 22:15:00
5:35 PM,90.1,73.2,57,29.93,10.0,North,3.5,-,N/A,,Clear,10,2013-06-15 22:35:00
5:55 PM,90.0,72.3,56,29.93,10.0,ENE,3.5,-,N/A,,Clear,70,2013-06-15 22:55:00
6:15 PM,89.6,73.2,58,29.92,10.0,Calm,Calm,-,N/A,,Clear,0,2013-06-15 23:15:00
6:35 PM,88.9,74.1,62,29.92,10.0,Calm,Calm,-,N/A,,Clear,0,2013-06-15 23:35:00
6:55 PM,88.0,74.5,64,29.92,10.0,Calm,Calm,-,N/A,,Clear,0,2013-06-15 23:55:00
7:15 PM,87.3,75.2,67,29.92,10.0,Calm,Calm,-,N/A,,Clear,0,2013-06-16 00:15:00
7:35 PM,84.7,76.6,77,29.92,10.0,Calm,Calm,-,N/A,,Scattered Clouds,0,2013-06-16 00:35:00
7:55 PM,81.5,77.9,89,29.92,7.0,Calm,Calm,-,N/A,Thunderstorm,Overcast,0,2013-06-16 00:55:00
8:15 PM,79.7,76.5,90,29.93,7.0,Calm,Calm,-,N/A,,Mostly Cloudy,0,2013-06-16 01:15:00
8:35 PM,79.2,76.6,92,29.94,7.0,Calm,Calm,-,N/A,,Scattered Clouds,0,2013-06-16 01:35:00
8:55 PM,78.8,76.1,91,29.94,7.0,Calm,Calm,-,N/A,,Clear,0,2013-06-16 01:55:00
9:15 PM,78.3,76.3,94,29.95,5.0,Calm,Calm,-,N/A,,Clear,0,2013-06-16 02:15:00
9:35 PM,77.5,75.4,93,29.96,7.0,Calm,Calm,-,N/A,,Clear,0,2013-06-16 02:35:00
9:55 PM,77.7,75.6,93,29.97,7.0,Calm,Calm,-,N/A,,Clear,0,2013-06-16 02:55:00
10:15 PM,77.2,75.4,94,29.98,3.0,SSW,3.5,-,N/A,,Scattered Clouds,210,2013-06-16 03:15:00
10:35 PM,78.3,75.0,90,29.99,10.0,Calm,Calm,-,N/A,,Mostly Cloudy,0,2013-06-16 03:35:00
10:55 PM,78.8,75.4,89,29.99,7.0,Calm,Calm,-,N/A,,Overcast,0,2013-06-16 03:55:00
11:15 PM,78.1,75.4,91,30.00,7.0,Calm,Calm,-,N/A,,Scattered Clouds,0,2013-06-16 04:15:00
11:35 PM,78.4,76.1,92,30.00,5.0,Calm,Calm,-,N/A,,Mostly Cloudy,0,2013-06-16 04:35:00
11:55 PM,77.9,75.6,92,30.00,5.0,Calm,Calm,-,N/A,,Mostly Cloudy,0,2013-06-16 04:55:00